Regional Weather Roundup
Issued by NWS

Home | Current Version | Previous Version | Text Only | Print | Product List | Glossary Off
Versions: 1 2 3 4 5 6 7 8 9 10 11 12 13 14 15 16 17 18 19 20 21 22 23 24 25 26 27 28 29 30 31 32 33 34 35 36 37 38 39 40 41 42 43 44 45 46 47 48 49 50

000
ASUS43 KMPX 231010
RWRMN
WEATHER ROUNDUP FOR MINNESOTA
NATIONAL WEATHER SERVICE TWIN CITIES/CHANHASSEN MN
500 AM CDT SAT AUG 23 2014


NOTE: "FAIR" INDICATES FEW OR NO CLOUDS BELOW 12,000 FEET WITH NO
SIGNIFICANT WEATHER AND/OR OBSTRUCTIONS TO VISIBILITY. N/A MEANS
CURRENT SKY AND/OR WEATHER CONDITIONS ARE NOT AVAILABLE.

MNZ060>063-068>070-231100-
   Twin Cities Metro

CITY           SKY/WX    TMP DP  RH WIND       PRES   REMARKS
TWIN CITIES    CLOUDY    69  68  96 NE8       29.97F
ST PAUL        CLOUDY    70  67  90 NE6       29.97F
CRYSTAL        CLOUDY    69  66  90 NE5       29.97F
BLAINE         CLOUDY    70  70 100 NE5       29.98F FOG
LAKEVILLE      CLOUDY    66  66 100 NE6       29.97F FOG
EDEN PRAIRIE   CLOUDY    70  67  90 NE5       29.97S
SOUTH ST PAUL  CLOUDY    70  67  92 CALM      29.97S
LAKE ELMO      CLOUDY    70  68  94 NE6       29.99S
$$
MNZ001>005-007-008-013>017-022>024-027-028-231100-
   Northwest Minnesota

CITY           SKY/WX    TMP DP  RH WIND       PRES   REMARKS
BEMIDJI        FOG       66  66 100 NE3       30.05R VSB 1/4
HALLOCK        CLOUDY    59  57  94 N8        30.09S
ROSEAU         CLOUDY    63  57  82 N6        30.08S HAZE
WARROAD        FOG       61  57  88 NW5       30.08F VSB 1/2
THIEF RVR FALL CLOUDY    64  63  94 NE10      30.06S
CROOKSTON      CLOUDY    63  63 100 NE9       30.04F
FOSSTON        CLOUDY    66  64  94 N5        30.05S
DETROIT LAKES  MOCLDY    68  64  88 CALM      30.02F
MOORHEAD       FOG       64  64 100 N7        30.01F VSB 1
PARK RAPIDS    FOG       67  67 100 E3        30.02F VSB 3/4
MAHNOMEN       CLOUDY    67  66  97 NE5       30.02S
$$
MNZ006-009>011-018-025>026-231100-
   North Central Minnesota

CITY           SKY/WX    TMP DP  RH WIND       PRES   REMARKS
BAUDETTE       FOG       62  62 100 CALM      30.06S VSB 1/4
FLAG ISLAND    CLOUDY    66  64  94 N8        30.07F
INTL FALLS     CLOUDY    61  60  97 CALM      30.07S
WASKISH        CLOUDY    64  63  94 CALM      30.06S
BIG FORK       CLOUDY    66  66 100 NE5       30.06S FOG
LONGVILLE      CLOUDY    64  64 100 CALM      30.03F FOG
GRAND RAPIDS   CLOUDY    63  61  94 E3        30.05F
CRANE LAKE     CLOUDY    61  61 100 CALM      30.09R
ORR            CLEAR     63  61  94 CALM      30.05S
COOK           CLOUDY    64  64 100 CALM      30.08R
WALKER         CLOUDY    67  66  99 E3        30.03S FOG
$$
MNZ012-019>021-037-231100-
   Northeast Minnesota

CITY           SKY/WX    TMP DP  RH WIND       PRES   REMARKS
DULUTH         MOCLDY    62  59  90 NE8       30.06S
ELY            CLOUDY    64  61  88 CALM      30.08S
HIBBING        CLOUDY    64  62  93 SE3       30.07S
EVELETH        CLOUDY    63  61  94 NE5       30.08S FOG
DULUTH HARBOR  CLOUDY    63  61  94 NE12      30.05S
TWO HARBORS    CLOUDY    61  55  82 CALM      30.04S
SILVER BAY     CLEAR     61  61 100 CALM      30.05S
GRAND MARAIS     N/A     63  60  90 CALM      30.05S
G MARAIS ARPRT CLOUDY    61  55  82 N5        30.10S
$$
MNZ029>031-032-039>041-046>048-054>057-064-231100-
   West Central Minnesota

CITY           SKY/WX    TMP DP  RH WIND       PRES   REMARKS
FERGUS FALLS   CLOUDY    70  66  88 E6        30.00S
WHEATON        CLOUDY    64  64 100 NE6       30.02R FOG
MORRIS         CLOUDY    70  68  94 E3        30.00S
ALEXANDRIA     FOG       68  67  96 E8        30.04R VSB 3/4
ELBOW LAKE     MOCLDY    68  67  97 E5        30.01R
WADENA         CLOUDY    66  66 100 SE5       30.02R FOG
GLENWOOD       CLOUDY    66  66 100 E10       30.03S FOG
APPLETON       CLOUDY    72  68  88 E3        29.99S
BENSON         CLOUDY    70  66  88 E3        30.01R
ORTONVILLE     CLOUDY    68  64  88 E3        30.00R
MADISON        CLOUDY    73  72  94 CALM      29.99S FOG
WILLMAR        FAIR      70  66  88 E6        30.01S
$$
MNZ033>034-036-042>043-049>051-058-059-231100-
   Central Minnesota

CITY           SKY/WX    TMP DP  RH WIND       PRES   REMARKS
ST CLOUD       CLOUDY    66  64  93 NE3       30.01S
SAUK CENTRE    CLOUDY    66  65  96 CALM      30.03R
PAYNESVILLE    CLOUDY    65  64  98 N6        30.02S
AITKIN         MIX PCPN  64  57  77 E5        30.03S VSB 1/2
PINE RIVER     CLOUDY    64  64 100 E6        30.06F
BRAINERD       CLOUDY    62  62 100 E3        30.04R FOG
STAPLES        CLOUDY    64  64 100 SE3       30.03R
LONG PRAIRIE   CLOUDY    64  63  94 E3        30.04R
LITTLE FALLS   MOCLDY    63  61  94 CALM      30.03R
LITCHFIELD     CLOUDY    68  68 100 NE5       30.01S
BUFFALO        CLOUDY    66  64  93 NE7       30.01S FOG
MAPLE LAKE     CLOUDY    67  66  97 NE5       30.01F FOG
$$
MNZ037-044-045-052-053-231100-
   East Central Minnesota

CITY           SKY/WX    TMP DP  RH WIND       PRES   REMARKS
PRINCETON      CLOUDY    66  64  94 NE3       30.02R
MORA           CLOUDY    61  59  94 CALM      30.05R
CAMBRIDGE      CLOUDY    68  59  73 NE6       30.00R
RUSH CITY      CLOUDY    64  63  95 NE6       30.02R
MOOSE LAKE     MOCLDY    61  59  94 NE5       30.03S
HINCKLEY       CLOUDY    63  61  94 N6        30.03R
CLOQUET        CLOUDY    61  59  94 NE6       30.06R
MCGREGOR       CLOUDY    61  61 100 E5        30.05S VSB 1/2
$$
MNZ071>073-080-081-089-090-097-098-231100-
   Southwest Minnesota

CITY           SKY/WX    TMP DP  RH WIND       PRES   REMARKS
MONTEVIDEO     CLOUDY    70  70 100 SE5       30.00S
GRANITE FALLS  CLOUDY    69  68  96 E5        30.01S
CANBY          CLOUDY    70  68  95 E3        29.99F FOG
MARSHALL       CLOUDY    70  66  88 E7          N/A
REDWOOD FALLS  CLOUDY    68  67  96 E3        29.98F FOG
OLIVIA         CLOUDY    70  68  94 CALM      29.99S FOG
PIPESTONE      LGT RAIN  70  66  88 E6        29.98R
WINDOM         CLOUDY    68  66  94 NE5       29.98S FOG
WORTHINGTON      N/A     68  68 100 NE6       29.99R
JACKSON        CLOUDY    68  64  88 E5        29.99R FOG
TRACY          CLOUDY    68  67  97 CALM      29.99S FOG
SLAYTON        CLOUDY    67  67  99 CALM      29.99F FOG
$$
MNZ065>067-074>077-082>085-091>093-231100-
   South Central Minnesota

CITY           SKY/WX    TMP DP  RH WIND       PRES   REMARKS
MANKATO        CLOUDY    70  64  83 NE6       29.97R
NEW ULM        CLOUDY    66  66 100 NE3       29.98R FOG
ST JAMES       CLOUDY    68  66  94 CALM      29.99R FOG
FAIRMONT       CLOUDY    61  61 100 MISG      29.98R
GLENCOE        MOCLDY    67  64  91 N5        29.98S FOG
FARIBAULT      MOCLDY    70  64  83 CALM      29.98R HAZE
OWATONNA       CLOUDY    66  64  94 E5        29.98R FOG
WASECA         MOCLDY    64  61  88 NE5       29.98S FOG
ALBERT LEA     CLOUDY    68  66  94 CALM      29.98R FOG
$$
MNZ078>079-086>088-094>096-231100-
   Southeast Minnesota

CITY           SKY/WX    TMP DP  RH WIND       PRES   REMARKS
ROCHESTER      CLOUDY    68  67  96 NE3       30.00R FOG
RED WING       CLOUDY    72  68  88 E3        29.95F
STANTON        CLOUDY    69  67  93 NE5       29.96S FOG
DODGE CENTER   DRZL/FOG  66  66 100 NE3       29.98R VSB 1/4
WINONA         CLOUDY    72  70  94 E3        29.96R FOG
AUSTIN         MOCLDY    66  66 100 CALM      29.98R FOG
PRESTON        FOG       68  68 100 NE3       29.99R VSB 1/4
$$
ABBREVIATIONS USED IN REMARKS
   TC - TEMPERATURES IN CELSIUS
  WCI - WIND CHILL INDEX
   HX - HEAT INDEX
  VSB - VISIBILITY
$$



USA.gov is the U.S. government's official web portal to all federal, state and local government web resources and services.